• In Deutschland
  • Länderverzeichnis
  • Für 7 Tage
  • Wassertemperatur
  • Satellitenkarten
  • Wetterkarte
  • Widgets
  • user-avatar
    Anmelden

    Stündliche Wetter Solingen

    Heute, 18 Februar, Sonntag

    Zeit Temperatur Niederschläge Wind Luftdruck Luftfeuchtigkeit
    00:00 0°C° 0 mm 1 m/S 749 mmHg 81%
    01:00 0°C° 0 mm 1 m/S 749 mmHg 81%
    02:00 0°C° 0 mm 1 m/S 749 mmHg 80%
    03:00 -3°C° 0 mm 2 m/S 749 mmHg 80%
    04:00 -3°C° 0 mm 2 m/S 749 mmHg 79%
    05:00 -3°C° 0 mm 2 m/S 749 mmHg 79%
    06:00 -3°C° 0 mm 2 m/S 749 mmHg 79%
    07:00 -2°C° 0 mm 2 m/S 749 mmHg 74%
    08:00 -1°C° 0 mm 2 m/S 750 mmHg 70%
    09:00 +1°C° 0 mm 2 m/S 750 mmHg 66%
    10:00 +3°C° 0 mm 2 m/S 750 mmHg 62%
    11:00 +4°C° 0 mm 2 m/S 750 mmHg 57%
    12:00 +5°C° 0 mm 2 m/S 750 mmHg 52%
    13:00 +5°C° 0 mm 2 m/S 749 mmHg 52%
    14:00 +5°C° 0 mm 2 m/S 749 mmHg 53%
    15:00 +5°C° 0 mm 2 m/S 749 mmHg 53%
    16:00 +4°C° 0 mm 2 m/S 749 mmHg 59%
    17:00 +3°C° 0 mm 2 m/S 749 mmHg 65%
    18:00 +2°C° 0 mm 2 m/S 749 mmHg 70%
    19:00 +1°C° 0 mm 2 m/S 749 mmHg 72%
    20:00 +1°C° 0 mm 2 m/S 749 mmHg 74%
    21:00 -1°C° 0 mm 2 m/S 748 mmHg 77%
    22:00 -1°C° 0 mm 2 m/S 748 mmHg 77%
    23:00 -2°C° 0 mm 2 m/S 748 mmHg 78%

    Morgen, 19 Februar, Montag

    Zeit Temperatur Niederschläge Wind Luftdruck Luftfeuchtigkeit
    00:00 -2°C° 0 mm 2 m/S 748 mmHg 78%
    01:00 -2°C° 0 mm 2 m/S 748 mmHg 79%
    02:00 0°C° 0 mm 1 m/S 747 mmHg 79%
    03:00 0°C° 0 mm 1 m/S 747 mmHg 79%
    04:00 0°C° 0 mm 1 m/S 747 mmHg 79%
    05:00 0°C° 0 mm 1 m/S 747 mmHg 79%
    06:00 0°C° 0 mm 1 m/S 747 mmHg 79%
    07:00 +1°C° 0 mm 1 m/S 747 mmHg 75%
    08:00 +2°C° 0 mm 1 m/S 747 mmHg 71%
    09:00 +3°C° 0 mm 1 m/S 747 mmHg 67%
    10:00 +4°C° 0 mm 1 m/S 746 mmHg 62%
    11:00 +5°C° 0 mm 1 m/S 746 mmHg 56%
    12:00 +6°C° 0 mm 1 m/S 746 mmHg 51%
    13:00 +6°C° 0 mm 1 m/S 745 mmHg 50%
    14:00 +6°C° 0 mm 1 m/S 745 mmHg 49%
    15:00 +6°C° 0 mm 0 m/S 745 mmHg 48%
    16:00 +4°C° 0 mm 0 m/S 745 mmHg 53%
    17:00 +3°C° 0 mm 0 m/S 745 mmHg 57%
    18:00 +2°C° 0 mm 0 m/S 744 mmHg 61%
    19:00 +2°C° 0 mm 0 m/S 744 mmHg 63%
    20:00 +2°C° 0 mm 1 m/S 744 mmHg 64%
    21:00 +2°C° 0 mm 1 m/S 744 mmHg 65%
    22:00 +2°C° 0 mm 1 m/S 744 mmHg 66%
    23:00 +2°C° 0 mm 1 m/S 744 mmHg 67%

    übermorgen, 20 Februar, Dienstag

    Zeit Temperatur Niederschläge Wind Luftdruck Luftfeuchtigkeit
    00:00 +2°C° 0 mm 1 m/S 743 mmHg 68%
    01:00 +2°C° 0 mm 1 m/S 743 mmHg 69%
    02:00 +2°C° 0 mm 1 m/S 742 mmHg 70%
    03:00 +2°C° 0 mm 1 m/S 742 mmHg 70%
    04:00 +2°C° 0 mm 1 m/S 742 mmHg 71%
    05:00 +2°C° 0 mm 1 m/S 742 mmHg 71%
    06:00 +2°C° 0 mm 1 m/S 742 mmHg 72%
    07:00 +2°C° 0,1 mm 1 m/S 742 mmHg 70%
    08:00 +3°C° 0,1 mm 1 m/S 742 mmHg 69%
    09:00 +3°C° 0,1 mm 1 m/S 743 mmHg 68%
    10:00 +4°C° 0,2 mm 1 m/S 743 mmHg 68%
    11:00 +4°C° 0,2 mm 1 m/S 743 mmHg 69%
    12:00 +4°C° 0,2 mm 1 m/S 743 mmHg 69%
    13:00 +4°C° 0,1 mm 1 m/S 743 mmHg 70%
    14:00 +4°C° 0,1 mm 1 m/S 743 mmHg 71%
    15:00 +5°C° 0,1 mm 1 m/S 743 mmHg 72%
    16:00 +4°C° 0 mm 1 m/S 743 mmHg 76%
    17:00 +2°C° 0 mm 2 m/S 744 mmHg 80%
    18:00 +2°C° 0 mm 2 m/S 744 mmHg 84%
    19:00 +1°C° 0 mm 2 m/S 745 mmHg 84%
    20:00 +1°C° 0 mm 2 m/S 745 mmHg 85%
    21:00 -1°C° 0 mm 2 m/S 745 mmHg 85%
    22:00 -1°C° 0 mm 2 m/S 746 mmHg 84%
    23:00 -2°C° 0 mm 2 m/S 746 mmHg 84%

    21 Februar, Mittwoch

    Zeit Temperatur Niederschläge Wind Luftdruck Luftfeuchtigkeit
    00:00 -2°C° 0 mm 2 m/S 746 mmHg 84%
    01:00 -2°C° 0 mm 2 m/S 746 mmHg 84%
    02:00 -3°C° 0 mm 2 m/S 747 mmHg 84%
    03:00 -3°C° 0 mm 2 m/S 747 mmHg 84%
    04:00 -3°C° 0 mm 2 m/S 747 mmHg 84%
    05:00 -3°C° 0 mm 2 m/S 747 mmHg 84%
    06:00 -3°C° 0 mm 2 m/S 747 mmHg 83%
    07:00 -2°C° 0 mm 2 m/S 747 mmHg 78%
    08:00 -1°C° 0 mm 2 m/S 747 mmHg 73%
    09:00 +1°C° 0 mm 2 m/S 748 mmHg 67%
    10:00 +2°C° 0 mm 2 m/S 747 mmHg 63%
    11:00 +2°C° 0 mm 3 m/S 747 mmHg 58%
    12:00 +3°C° 0 mm 3 m/S 747 mmHg 54%
    13:00 +3°C° 0 mm 3 m/S 746 mmHg 55%
    14:00 +2°C° 0 mm 3 m/S 746 mmHg 55%
    15:00 +2°C° 0 mm 3 m/S 746 mmHg 56%
    16:00 +1°C° 0 mm 3 m/S 746 mmHg 62%
    17:00 0°C° 0 mm 3 m/S 746 mmHg 68%
    18:00 -1°C° 0 mm 3 m/S 746 mmHg 75%
    19:00 -2°C° 0 mm 3 m/S 746 mmHg 77%
    20:00 -2°C° 0 mm 2 m/S 746 mmHg 79%
    21:00 -2°C° 0 mm 2 m/S 746 mmHg 82%
    22:00 -3°C° 0 mm 2 m/S 746 mmHg 82%
    23:00 -3°C° 0 mm 2 m/S 746 mmHg 83%

    22 Februar, Donnerstag

    Zeit Temperatur Niederschläge Wind Luftdruck Luftfeuchtigkeit
    00:00 -3°C° 0 mm 2 m/S 746 mmHg 83%
    01:00 -3°C° 0 mm 2 m/S 746 mmHg 82%
    02:00 -3°C° 0 mm 2 m/S 745 mmHg 81%
    03:00 -5°C° 0 mm 3 m/S 745 mmHg 80%
    04:00 -5°C° 0 mm 3 m/S 745 mmHg 79%
    05:00 -5°C° 0 mm 3 m/S 745 mmHg 78%
    06:00 -5°C° 0 mm 3 m/S 745 mmHg 76%
    07:00 -4°C° 0 mm 4 m/S 745 mmHg 70%
    08:00 -3°C° 0 mm 4 m/S 745 mmHg 64%
    09:00 -4°C° 0 mm 5 m/S 745 mmHg 58%
    10:00 -2°C° 0 mm 5 m/S 744 mmHg 53%
    11:00 -1°C° 0 mm 5 m/S 744 mmHg 49%
    12:00 0°C° 0 mm 5 m/S 744 mmHg 45%
    13:00 0°C° 0 mm 5 m/S 743 mmHg 45%
    14:00 0°C° 0 mm 5 m/S 743 mmHg 45%
    15:00 0°C° 0 mm 5 m/S 743 mmHg 46%
    16:00 -1°C° 0 mm 5 m/S 743 mmHg 50%
    17:00 -2°C° 0 mm 5 m/S 743 mmHg 54%
    18:00 -3°C° 0 mm 4 m/S 743 mmHg 59%
    19:00 -4°C° 0 mm 4 m/S 743 mmHg 60%
    20:00 -4°C° 0 mm 4 m/S 744 mmHg 62%
    21:00 -4°C° 0 mm 4 m/S 744 mmHg 63%
    22:00 -4°C° 0 mm 4 m/S 744 mmHg 64%
    23:00 -5°C° 0 mm 4 m/S 744 mmHg 64%

    23 Februar, Freitag

    Zeit Temperatur Niederschläge Wind Luftdruck Luftfeuchtigkeit
    00:00 -5°C° 0 mm 4 m/S 743 mmHg 64%
    01:00 -5°C° 0 mm 4 m/S 743 mmHg 64%
    02:00 -5°C° 0 mm 4 m/S 743 mmHg 64%
    03:00 -5°C° 0 mm 4 m/S 743 mmHg 64%
    04:00 -5°C° 0 mm 4 m/S 744 mmHg 64%
    05:00 -7°C° 0 mm 4 m/S 744 mmHg 65%
    06:00 -7°C° 0 mm 4 m/S 744 mmHg 65%
    07:00 -5°C° 0 mm 4 m/S 744 mmHg 62%
    08:00 -4°C° 0 mm 4 m/S 744 mmHg 58%
    09:00 -5°C° 0 mm 5 m/S 745 mmHg 55%
    10:00 -3°C° 0 mm 4 m/S 745 mmHg 52%
    11:00 -2°C° 0 mm 4 m/S 745 mmHg 50%
    12:00 -1°C° 0 mm 4 m/S 745 mmHg 47%
    13:00 -1°C° 0 mm 4 m/S 745 mmHg 48%
    14:00 -1°C° 0 mm 4 m/S 745 mmHg 49%
    15:00 -1°C° 0 mm 5 m/S 745 mmHg 50%
    16:00 -2°C° 0 mm 4 m/S 745 mmHg 52%
    17:00 -3°C° 0 mm 4 m/S 745 mmHg 55%
    18:00 -4°C° 0 mm 4 m/S 746 mmHg 58%
    19:00 -5°C° 0 mm 4 m/S 746 mmHg 56%
    20:00 -5°C° 0 mm 4 m/S 747 mmHg 54%
    21:00 -7°C° 0 mm 4 m/S 747 mmHg 52%
    22:00 -7°C° 0 mm 4 m/S 747 mmHg 51%
    23:00 -7°C° 0 mm 4 m/S 747 mmHg 50%
    Mehr zeigen